This is the latest recevied weather packets stored in our database for station/object DG7FDL-7. If no packets are shown the sender has not sent any weather packets the latest 10 day(s).
| Time | Temp. | Humidity | Pressure | Rain* | Wind** | Luminosity | Snow |
|---|---|---|---|---|---|---|---|
| 1777597497 | 19.44° C | 33% | 1029.8 hPa | - | - | - | - |
| 1777596597 | 20° C | 33% | 1029.7 hPa | - | - | - | - |
| 1777595697 | 18.89° C | 34% | 1029.8 hPa | - | - | - | - |
| 1777594797 | 18.89° C | 34% | 1029.7 hPa | - | - | - | - |
| 1777593896 | 19.44° C | 34% | 1029.7 hPa | - | - | - | - |
| 1777592996 | 19.44° C | 33% | 1029.6 hPa | - | - | - | - |
| 1777592096 | 19.44° C | 33% | 1029.6 hPa | - | - | - | - |
| 1777591196 | 19.44° C | 33% | 1029.6 hPa | - | - | - | - |
| 1777590296 | 20° C | 33% | 1029.7 hPa | - | - | - | - |
| 1777589402 | 20° C | 33% | 1029.7 hPa | - | - | - | - |
| 1777588496 | 20° C | 33% | 1029.7 hPa | - | - | - | - |
| 1777587599 | 20° C | 33% | 1029.6 hPa | - | - | - | - |
| 1777586691 | 21.11° C | 32% | 1029.6 hPa | - | - | - | - |
| 1777585791 | 20.56° C | 33% | 1029.4 hPa | - | - | - | - |
| 1777584891 | 21.67° C | 32% | 1029.4 hPa | - | - | - | - |
| 1777583991 | 21.67° C | 32% | 1029.3 hPa | - | - | - | - |
| 1777583091 | 22.22° C | 32% | 1029.3 hPa | - | - | - | - |
| 1777582196 | 22.22° C | 32% | 1029.1 hPa | - | - | - | - |
| 1777581296 | 21.67° C | 32% | 1029.3 hPa | - | - | - | - |
| 1777580391 | 22.22° C | 31% | 1029.2 hPa | - | - | - | - |
| 1777579490 | 22.22° C | 31% | 1029.1 hPa | - | - | - | - |
| 1777577690 | 21.67° C | 31% | 1028.9 hPa | - | - | - | - |
| 1777576790 | 21.67° C | 31% | 1028.8 hPa | - | - | - | - |
| 1777575890 | 21.67° C | 31% | 1028.9 hPa | - | - | - | - |
| 1777574990 | 21.67° C | 31% | 1028.7 hPa | - | - | - | - |
* Rain since midnight (hover to see other rain measurements)
** Current wind speed in m/s (hover to see current wind gust speed)